Voltar ao catálogo

STARLINK-6378

AtivoComunicaçõesVLEO
NORAD 57347·PAYLOAD·🇺🇸 United States

Lançado Jul 16, 2023 de Cape Canaveral Space Force Station

Loading…

Próximas Passagens (próximas 24 horas)

TLE

AtualizadoSource: CelesTrak SupGP

Época: Sep 15, 2026, 02:48 UTC

1 57347C 23099V   26258.11715278 -.00017305  00000+0 -62690-3 0  2585
2 57347  43.0006 266.0244 0001575 268.5501 209.5604 15.27580696    16

Acompanhe STARLINK-6378 em tempo real com AllMySat

Download on the App Store